Flag for Nicaragua Weather past 2 weeks in Masaya, Nicaragua

Now
90 °F

Scattered clouds.


Feels Like: 103 °F
Forecast: 74 / 86 °F
Wind: 9 mph from Southeast

Location: Managua A. C. Sandino

Current Time: Oct 1, 2014 at 1:13:12 PM

Latest Report: Oct 1, 2014 at 12:00 PM


Visibility: 6 mi

Pressure: 29.83 "Hg

Humidity: 67%

Dew point: 77 °F

Location of MasayaLocation

Historic Weather in Masaya — Graph

°F

Masaya temperature yesterday

Maximum temperature yesterday: 90 °F (at 3:00 PM)
Minimum temperature yesterday: 75 °F (at 1:45 AM)
Average temperature yesterday: 81 °F

Past Weeks' High & Low Weather Summary

 TemperatureHumidityPressure
High91 °F (Sep 22, 2:00 PM)100% (Sep 25, 4:00 AM)30.09 "Hg (Sep 25, 4:00 AM)
Low73 °F (Sep 16, 7:00 PM)56% (Sep 23, 2:00 PM)29.68 "Hg (Sep 23, 4:00 PM)
Average81 °F82%29.82 "Hg
* Reported Sep 16 12:00 Noon — Oct 1 12:00 Noon, Masaya, Weather by CustomWeather, © 2014

Note: Actual official high and low records may vary slightly from our data, if they occured in-between our weather recording intervals... More about our weather records

Advertising

Masaya weather history for previous 24 hours

 ConditionsComfort  
Time TempWeatherWind HumidityBarometerVisibility
12:00 PM
Oct 1
90 °FScattered clouds.9 mph67%29.83 "Hg6 mi
11:00 AM90 °FScattered clouds.12 mph67%29.86 "Hg6 mi
10:00 AM86 °FScattered clouds.12 mph79%29.86 "Hg6 mi
9:00 AM86 °FPassing clouds.9 mph75%29.86 "Hg6 mi
8:00 AM82 °FPassing clouds.7 mph84%29.83 "Hg6 mi
7:00 AM81 °FPassing clouds.5 mph84%29.83 "Hg6 mi
6:00 AM77 °FPassing clouds.5 mph94%29.80 "Hg6 mi
5:00 AM77 °FPassing clouds.7 mph94%29.80 "HgN/A
12:00 AM79 °FPassing clouds.5 mph89%29.80 "HgN/A
11:00 PM
Sep 30
81 °FPassing clouds.5 mph89%29.80 "HgN/A
10:00 PM81 °FPassing clouds.5 mph94%29.80 "HgN/A
9:00 PM82 °FPassing clouds.7 mph89%29.80 "HgN/A
7:00 PM84 °FPassing clouds.5 mph84%29.77 "HgN/A
6:00 PM84 °FPassing clouds.5 mph84%29.74 "HgN/A
5:00 PM88 °FPassing clouds.7 mph75%29.71 "HgN/A
4:00 PM90 °FPassing clouds.7 mph71%29.71 "HgN/A
3:00 PM90 °FPassing clouds.7 mph71%29.71 "HgN/A
2:00 PM88 °FPassing clouds.7 mph70%29.74 "HgN/A
1:00 PM88 °FWarm.7 mph70%29.77 "HgN/A
Weather by CustomWeather, © 2014

See weather overviewHow to use our weather pages